| time (UTC) | temp F | wind direction | speed knots | gust knots | rain 1hr in | rain 24hr in | rain mn in | humidity % | barometer mb |
| 20260906181248 | 92 | 150 | 5.2 | 8.7 | 0.01 | 0.10 | 0.10 | 66 | 1016.0 |
| 20260906180729 | 91 | 179 | 6.1 | 9.6 | 0.00 | 0.09 | 0.09 | 65 | 1016.0 |
| 20260906180302 | 91 | 189 | 4.3 | 8.7 | 0.00 | 0.09 | 0.09 | 66 | 1016.0 |
| 20260906180107 | 91 | 202 | 5.2 | 8.7 | 0.00 | 0.09 | 0.09 | 66 | 1013.1 |
| 20260906180005 | 91 | 146 | 5.2 | 8.7 | 0.00 | 0.09 | 0.09 | 67 | 1013.1 |
| 20260906175723 | 91 | 153 | 5.2 | 9.6 | 0.00 | 0.09 | 0.09 | 66 | 1016.0 |
| 20260906175235 | 91 | 152 | 5.2 | 10.4 | 0.00 | 0.09 | 0.09 | 66 | 1016.2 |
| 20260906174802 | 90 | 159 | 7.8 | 12.2 | 0.00 | 0.09 | 0.09 | 67 | 1016.1 |
| 20260906174536 | 90 | 189 | 5.2 | 10.4 | 0.00 | 0.09 | 0.09 | 67 | 1013.2 |
| 20260906174225 | 90 | 139 | 4.3 | 8.7 | 0.00 | 0.09 | 0.09 | 71 | 1016.2 |
| 20260906173735 | 90 | 144 | 4.3 | 12.2 | 0.00 | 0.09 | 0.09 | 67 | 1016.2 |
| 20260906173247 | 90 | 148 | 7.0 | 12.2 | 0.00 | 0.09 | 0.09 | 69 | 1016.3 |
| 20260906173033 | 89 | 176 | 7.8 | 12.2 | 0.00 | 0.09 | 0.09 | 69 | 1013.4 |
| 20260906172728 | 90 | 164 | 6.1 | 9.6 | 0.00 | 0.09 | 0.09 | 70 | 1016.3 |
| 20260906172239 | 89 | 147 | 7.0 | 13.0 | 0.00 | 0.09 | 0.09 | 72 | 1016.4 |
| 20260906171722 | 89 | 169 | 7.8 | 13.0 | 0.00 | 0.09 | 0.09 | 71 | 1016.5 |
| 20260906171535 | 88 | 169 | 7.8 | 13.0 | 0.00 | 0.09 | 0.09 | 71 | 1013.7 |
| 20260906171250 | 89 | 155 | 7.0 | 10.4 | 0.00 | 0.09 | 0.09 | 71 | 1016.7 |
| 20260906170730 | 88 | 195 | 6.1 | 9.6 | 0.00 | 0.09 | 0.09 | 73 | 1016.8 |
| 20260906170242 | 87 | 194 | 4.3 | 8.7 | 0.00 | 0.09 | 0.09 | 74 | 1016.6 |
| 20260906170106 | 87 | 163 | 4.3 | 8.7 | 0.00 | 0.09 | 0.09 | 74 | 1013.7 |
| 20260906165751 | 87 | 168 | 6.1 | 11.3 | 0.00 | 0.09 | 0.09 | 75 | 1016.7 |
| 20260906165243 | 86 | 138 | 7.0 | 11.3 | 0.00 | 0.09 | 0.09 | 76 | 1016.7 |
| 20260906164726 | 85 | 158 | 7.0 | 10.4 | 0.00 | 0.09 | 0.09 | 78 | 1016.9 |
| 20260906164528 | 85 | 160 | 6.1 | 11.3 | 0.00 | 0.09 | 0.09 | 80 | 1014.0 |
| 20260906164255 | 84 | 194 | 5.2 | 8.7 | 0.00 | 0.09 | 0.09 | 81 | 1017.0 |
| 20260906163742 | 84 | 138 | 6.1 | 9.6 | 0.00 | 0.09 | 0.09 | 80 | 1016.9 |
| 20260906163233 | 83 | 147 | 5.2 | 8.7 | 0.00 | 0.09 | 0.09 | 83 | 1017.1 |
| 20260906163047 | 83 | 157 | 5.2 | 8.7 | 0.00 | 0.09 | 0.09 | 83 | 1014.2 |
| 20260906162746 | 83 | 134 | 6.1 | 8.7 | 0.00 | 0.09 | 0.09 | 83 | 1017.2 |
| 20260906162228 | 82 | 148 | 2.6 | 6.1 | 0.00 | 0.09 | 0.09 | 86 | 1017.0 |
| 20260906161741 | 82 | 164 | 4.3 | 6.1 | 0.00 | 0.09 | 0.09 | 86 | 1017.2 |
| 20260906161541 | 82 | 159 | 3.5 | 6.1 | 0.00 | 0.09 | 0.09 | 86 | 1014.4 |
| 20260906161226 | 82 | 158 | 3.5 | 5.2 | 0.00 | 0.09 | 0.09 | 87 | 1017.2 |
| 20260906160737 | 82 | 159 | 2.6 | 4.3 | 0.00 | 0.09 | 0.09 | 87 | 1017.2 |
| 20260906160246 | 82 | 158 | 1.7 | 2.6 | 0.00 | 0.09 | 0.09 | 86 | 1017.3 |
| 20260906160029 | 81 | 158 | 1.7 | 2.6 | 0.00 | 0.09 | 0.09 | 86 | 1014.4 |
| 20260906155738 | 82 | 288 | 0.9 | 1.7 | 0.00 | 0.09 | 0.09 | 86 | 1017.3 |
| 20260906155309 | 82 | 288 | 0.0 | 1.7 | 0.00 | 0.09 | 0.09 | 86 | 1017.3 |
| 20260906154730 | 81 | 288 | 0.0 | 3.5 | 0.05 | 0.09 | 0.09 | 86 | 1017.4 |
| 20260906154505 | 81 | 288 | 0.9 | 3.5 | 0.09 | 0.09 | 0.09 | 86 | 1014.4 |
| 20260906154243 | 81 | 288 | 1.7 | 7.8 | 0.09 | 0.09 | 0.09 | 86 | 1017.5 |
| 20260906153724 | 81 | 288 | 1.7 | 7.8 | 0.09 | 0.09 | 0.09 | 85 | 1017.5 |
| 20260906153236 | 81 | 254 | 4.3 | 9.6 | 0.09 | 0.09 | 0.09 | 85 | 1017.6 |
| 20260906153006 | 81 | 284 | 0.9 | 10.4 | 0.09 | 0.09 | 0.09 | 85 | 1014.5 |
| 20260906152742 | 81 | 284 | 4.3 | 10.4 | 0.09 | 0.09 | 0.09 | 85 | 1017.5 |
| 20260906152223 | 81 | 238 | 4.3 | 8.7 | 0.09 | 0.09 | 0.09 | 84 | 1017.4 |
| 20260906151734 | 82 | 144 | 6.1 | 8.7 | 0.09 | 0.09 | 0.09 | 85 | 1016.8 |
| 20260906151505 | 81 | 152 | 5.2 | 8.7 | 0.09 | 0.09 | 0.09 | 85 | 1013.9 |
| 20260906151248 | 82 | 132 | 5.2 | 7.8 | 0.09 | 0.09 | 0.09 | 85 | 1016.8 |
| 20260906150730 | 82 | 149 | 3.5 | 6.1 | 0.09 | 0.09 | 0.09 | 85 | 1016.8 |
| 20260906150242 | 82 | 135 | 3.5 | 8.7 | 0.09 | 0.09 | 0.09 | 85 | 1016.7 |
| 20260906150055 | 82 | 102 | 3.5 | 9.6 | 0.09 | 0.09 | 0.09 | 84 | 1013.8 |
| 20260906145725 | 82 | 126 | 6.1 | 9.6 | 0.09 | 0.09 | 0.09 | 84 | 1016.7 |
| 20260906145235 | 82 | 104 | 7.0 | 9.6 | 0.09 | 0.09 | 0.09 | 84 | 1016.7 |
| 20260906144743 | 82 | 139 | 5.2 | 10.4 | 0.03 | 0.03 | 0.03 | 83 | 1016.7 |
| 20260906144559 | 82 | 144 | 6.1 | 10.4 | 0.01 | 0.01 | 0.02 | 82 | 1013.8 |
| 20260906144226 | 82 | 140 | 7.0 | 10.4 | 0.00 | 0.00 | 0.00 | 81 | 1016.6 |
| 20260906143735 | 82 | 109 | 7.8 | 12.2 | 0.00 | 0.00 | 0.00 | 82 | 1016.6 |
| 20260906143308 | 82 | 118 | 8.7 | 12.2 | 0.00 | 0.00 | 0.00 | 81 | 1016.6 |
| 20260906143037 | 81 | 138 | 8.7 | 13.9 | 0.00 | 0.00 | 0.00 | 82 | 1013.7 |
| 20260906142729 | 82 | 141 | 7.8 | 13.9 | 0.00 | 0.00 | 0.00 | 82 | 1016.7 |
| 20260906142300 | 82 | 121 | 9.6 | 13.9 | 0.00 | 0.00 | 0.00 | 82 | 1016.8 |
| 20260906141745 | 82 | 119 | 7.8 | 11.3 | 0.00 | 0.00 | 0.00 | 83 | 1016.8 |
| 20260906141518 | 81 | 129 | 7.8 | 11.3 | 0.00 | 0.00 | 0.00 | 82 | 1013.9 |
| 20260906141230 | 81 | 136 | 7.8 | 11.3 | 0.00 | 0.00 | 0.00 | 82 | 1016.8 |
| 20260906140740 | 81 | 113 | 7.8 | 10.4 | 0.00 | 0.00 | 0.00 | 83 | 1016.9 |
| 20260906140250 | 81 | 132 | 7.0 | 11.3 | 0.00 | 0.00 | 0.00 | 83 | 1016.9 |
| 20260906140031 | 81 | 134 | 7.0 | 11.3 | 0.00 | 0.00 | 0.00 | 83 | 1014.0 |
| 20260906135732 | 81 | 129 | 7.8 | 11.3 | 0.00 | 0.00 | 0.00 | 83 | 1016.8 |
| 20260906135306 | 81 | 174 | 5.2 | 12.2 | 0.00 | 0.00 | 0.00 | 84 | 1016.9 |
| 20260906134726 | 81 | 134 | 7.8 | 14.8 | 0.00 | 0.00 | 0.00 | 83 | 1016.8 |
| 20260906134600 | 80 | 114 | 7.0 | 14.8 | 0.00 | 0.00 | 0.00 | 83 | 1013.9 |
| 20260906134501 | 80 | 133 | 7.0 | 14.8 | 0.00 | 0.00 | 0.00 | 83 | 1013.9 |
| 20260906134240 | 81 | 138 | 8.7 | 14.8 | 0.00 | 0.00 | 0.00 | 84 | 1016.8 |
| 20260906133807 | 81 | 131 | 8.7 | 15.6 | 0.00 | 0.00 | 0.00 | 84 | 1016.8 |
| 20260906133232 | 80 | 128 | 9.6 | 14.8 | 0.00 | 0.00 | 0.00 | 84 | 1016.9 |
| 20260906133049 | 80 | 133 | 9.6 | 17.4 | 0.00 | 0.00 | 0.00 | 85 | 1014.0 |
| 20260906132742 | 80 | 134 | 9.6 | 17.4 | 0.00 | 0.00 | 0.00 | 86 | 1016.8 |
| 20260906132232 | 80 | 124 | 10.4 | 17.4 | 0.00 | 0.00 | 0.00 | 86 | 1016.7 |
| 20260906131804 | 79 | 117 | 8.7 | 13.9 | 0.00 | 0.00 | 0.00 | 87 | 1016.8 |
| 20260906131554 | 78 | 130 | 9.6 | 14.8 | 0.00 | 0.00 | 0.00 | 87 | 1013.9 |
| 20260906131226 | 79 | 132 | 8.7 | 14.8 | 0.00 | 0.00 | 0.00 | 87 | 1016.7 |
| 20260906130733 | 78 | 117 | 8.7 | 12.2 | 0.00 | 0.00 | 0.00 | 88 | 1016.7 |
| 20260906130307 | 78 | 117 | 7.8 | 11.3 | 0.00 | 0.00 | 0.00 | 88 | 1016.8 |
| 20260906130035 | 77 | 113 | 7.8 | 11.3 | 0.00 | 0.00 | 0.00 | 88 | 1014.0 |
| 20260906125732 | 78 | 113 | 7.8 | 12.2 | 0.00 | 0.00 | 0.00 | 88 | 1016.7 |
| 20260906125245 | 78 | 101 | 9.6 | 12.2 | 0.00 | 0.00 | 0.00 | 88 | 1016.6 |
| 20260906124735 | 78 | 113 | 7.8 | 12.2 | 0.00 | 0.00 | 0.00 | 88 | 1016.5 |
| 20260906124518 | 77 | 142 | 8.7 | 12.2 | 0.00 | 0.00 | 0.00 | 88 | 1013.6 |
| 20260906124247 | 77 | 108 | 7.8 | 12.2 | 0.00 | 0.00 | 0.00 | 88 | 1016.5 |
| 20260906123738 | 77 | 109 | 7.8 | 11.3 | 0.00 | 0.00 | 0.00 | 88 | 1016.4 |
| 20260906123246 | 77 | 84 | 7.8 | 11.3 | 0.00 | 0.00 | 0.00 | 88 | 1016.4 |
| 20260906123100 | 77 | 111 | 7.0 | 10.4 | 0.00 | 0.00 | 0.00 | 88 | 1013.5 |
| 20260906123010 | 77 | 113 | 7.0 | 10.4 | 0.00 | 0.00 | 0.00 | 88 | 1013.4 |
| 20260906122728 | 77 | 101 | 7.8 | 10.4 | 0.00 | 0.00 | 0.00 | 88 | 1016.4 |
| 20260906122239 | 77 | 118 | 6.1 | 10.4 | 0.00 | 0.00 | 0.00 | 88 | 1016.2 |
| 20260906121722 | 77 | 142 | 6.1 | 10.4 | 0.00 | 0.00 | 0.00 | 88 | 1016.1 |
| 20260906121507 | 76 | 123 | 6.1 | 7.8 | 0.00 | 0.00 | 0.00 | 88 | 1013.2 |
| 20260906121255 | 77 | 120 | 6.1 | 7.8 | 0.00 | 0.00 | 0.00 | 88 | 1016.1 |
| 20260906120742 | 77 | 123 | 4.3 | 7.8 | 0.00 | 0.00 | 0.00 | 88 | 1016.1 |
| 20260906120225 | 77 | 106 | 4.3 | 7.8 | 0.00 | 0.00 | 0.00 | 88 | 1016.1 |
| 20260906120020 | 76 | 126 | 3.5 | 7.8 | 0.00 | 0.00 | 0.00 | 88 | 1013.2 |
| 20260906115732 | 77 | 101 | 3.5 | 7.8 | 0.00 | 0.00 | 0.00 | 88 | 1016.0 |
| 20260906115306 | 77 | 138 | 3.5 | 7.8 | 0.00 | 0.00 | 0.00 | 88 | 1015.8 |
| 20260906114725 | 77 | 142 | 3.5 | 7.8 | 0.00 | 0.00 | 0.00 | 87 | 1015.7 |
| 20260906114503 | 76 | 100 | 6.1 | 7.8 | 0.00 | 0.00 | 0.00 | 87 | 1012.8 |
| 20260906114240 | 77 | 100 | 5.2 | 7.8 | 0.00 | 0.00 | 0.00 | 87 | 1015.6 |
| 20260906113750 | 77 | 82 | 4.3 | 7.8 | 0.00 | 0.00 | 0.00 | 87 | 1015.6 |
| 20260906113240 | 77 | 107 | 5.2 | 7.8 | 0.00 | 0.00 | 0.00 | 87 | 1015.6 |
| 20260906113047 | 77 | 126 | 4.3 | 7.0 | 0.00 | 0.00 | 0.00 | 87 | 1012.7 |
| 20260906112808 | 77 | 108 | 3.5 | 7.0 | 0.00 | 0.00 | 0.00 | 87 | 1015.6 |
| 20260906112230 | 77 | 119 | 3.5 | 7.0 | 0.00 | 0.00 | 0.00 | 87 | 1015.7 |
| 20260906111807 | 77 | 105 | 4.3 | 6.1 | 0.00 | 0.00 | 0.00 | 87 | 1015.7 |
| 20260906111605 | 77 | 113 | 3.5 | 6.1 | 0.00 | 0.00 | 0.00 | 87 | 1012.8 |
| 20260906111318 | 77 | 121 | 3.5 | 6.1 | 0.00 | 0.00 | 0.00 | 87 | 1015.8 |
| 20260906110834 | 77 | 134 | 2.6 | 6.1 | 0.00 | 0.00 | 0.00 | 87 | 1015.9 |
| 20260906110229 | 77 | 109 | 3.5 | 7.8 | 0.00 | 0.00 | 0.00 | 87 | 1015.9 |
| 20260906110014 | 77 | 131 | 2.6 | 7.8 | 0.00 | 0.00 | 0.00 | 87 | 1013.0 |
| 20260906105801 | 77 | 126 | 5.2 | 7.8 | 0.00 | 0.00 | 0.00 | 86 | 1015.9 |
| 20260906105247 | 77 | 144 | 2.6 | 6.1 | 0.00 | 0.00 | 0.00 | 86 | 1015.9 |
| 20260906104736 | 77 | 153 | 2.6 | 7.0 | 0.00 | 0.00 | 0.00 | 86 | 1015.8 |
| 20260906104533 | 77 | 119 | 3.5 | 7.0 | 0.00 | 0.00 | 0.00 | 86 | 1012.8 |
| 20260906104248 | 77 | 117 | 3.5 | 7.0 | 0.00 | 0.00 | 0.00 | 86 | 1015.6 |
| 20260906103738 | 77 | 124 | 2.6 | 7.0 | 0.00 | 0.00 | 0.00 | 86 | 1015.6 |
| 20260906103245 | 77 | 112 | 3.5 | 7.8 | 0.00 | 0.00 | 0.00 | 86 | 1015.4 |
| 20260906103058 | 77 | 128 | 3.5 | 7.8 | 0.00 | 0.00 | 0.00 | 86 | 1012.5 |
| 20260906102729 | 77 | 94 | 4.3 | 7.8 | 0.00 | 0.00 | 0.00 | 86 | 1015.3 |
| 20260906102300 | 77 | 133 | 4.3 | 7.8 | 0.00 | 0.00 | 0.00 | 86 | 1015.3 |
| 20260906101810 | 78 | 134 | 5.2 | 7.8 | 0.00 | 0.00 | 0.00 | 86 | 1015.3 |
| 20260906101520 | 77 | 126 | 3.5 | 9.6 | 0.00 | 0.00 | 0.00 | 86 | 1012.4 |
| 20260906101233 | 78 | 121 | 5.2 | 9.6 | 0.00 | 0.00 | 0.00 | 86 | 1015.3 |
| 20260906100742 | 78 | 111 | 6.1 | 9.6 | 0.00 | 0.00 | 0.00 | 86 | 1015.4 |
| 20260906100224 | 78 | 107 | 6.1 | 8.7 | 0.00 | 0.00 | 0.00 | 86 | 1015.3 |
| 20260906100018 | 77 | 115 | 5.2 | 8.7 | 0.00 | 0.00 | 0.00 | 86 | 1012.5 |
| 20260906095732 | 78 | 105 | 6.1 | 8.7 | 0.00 | 0.00 | 0.00 | 86 | 1015.3 |
| 20260906095245 | 78 | 95 | 4.3 | 8.7 | 0.00 | 0.00 | 0.00 | 85 | 1015.3 |
| 20260906094729 | 78 | 108 | 5.2 | 7.8 | 0.00 | 0.00 | 0.00 | 85 | 1015.3 |
| 20260906094536 | 77 | 125 | 4.3 | 7.0 | 0.00 | 0.00 | 0.00 | 85 | 1012.4 |
| 20260906094241 | 78 | 100 | 3.5 | 7.0 | 0.00 | 0.00 | 0.00 | 85 | 1015.3 |
| 20260906093749 | 78 | 108 | 4.3 | 6.1 | 0.00 | 0.00 | 0.00 | 85 | 1015.3 |
| 20260906093231 | 78 | 119 | 3.5 | 6.1 | 0.00 | 0.00 | 0.00 | 84 | 1015.3 |
| 20260906093036 | 77 | 116 | 2.6 | 5.2 | 0.00 | 0.00 | 0.00 | 84 | 1012.4 |
| 20260906092744 | 78 | 127 | 2.6 | 5.2 | 0.00 | 0.00 | 0.00 | 84 | 1015.3 |
| 20260906092227 | 78 | 12 | 2.6 | 5.2 | 0.00 | 0.00 | 0.00 | 84 | 1015.4 |
| 20260906091734 | 78 | 136 | 2.6 | 3.5 | 0.00 | 0.00 | 0.00 | 84 | 1015.4 |
| 20260906091510 | 77 | 131 | 1.7 | 3.5 | 0.00 | 0.00 | 0.00 | 84 | 1012.4 |
| 20260906091247 | 78 | 118 | 2.6 | 5.2 | 0.00 | 0.00 | 0.00 | 84 | 1015.3 |
| 20260906090735 | 78 | 130 | 2.6 | 6.1 | 0.00 | 0.00 | 0.00 | 84 | 1015.3 |
| 20260906090246 | 78 | 107 | 3.5 | 6.1 | 0.00 | 0.00 | 0.00 | 84 | 1015.3 |
| 20260906090054 | 78 | 112 | 3.5 | 6.1 | 0.00 | 0.00 | 0.00 | 84 | 1012.4 |
| 20260906085730 | 78 | 109 | 2.6 | 5.2 | 0.00 | 0.00 | 0.00 | 83 | 1015.4 |
| 20260906085300 | 78 | 107 | 2.6 | 5.2 | 0.00 | 0.00 | 0.00 | 83 | 1015.4 |
| 20260906084807 | 78 | 107 | 2.6 | 5.2 | 0.00 | 0.00 | 0.00 | 83 | 1015.4 |
| 20260906084600 | 78 | 96 | 2.6 | 5.2 | 0.00 | 0.00 | 0.00 | 83 | 1012.5 |
| 20260906084503 | 78 | 96 | 2.6 | 5.2 | 0.00 | 0.00 | 0.00 | 83 | 1012.5 |
| 20260906084230 | 79 | 77 | 3.5 | 5.2 | 0.00 | 0.00 | 0.00 | 83 | 1015.3 |
| 20260906083800 | 79 | 113 | 3.5 | 5.2 | 0.00 | 0.00 | 0.00 | 82 | 1015.3 |
| 20260906083222 | 79 | 139 | 2.6 | 6.1 | 0.00 | 0.00 | 0.00 | 82 | 1015.2 |
| 20260906083039 | 78 | 134 | 2.6 | 6.1 | 0.00 | 0.00 | 0.00 | 82 | 1012.3 |
| 20260906082732 | 79 | 132 | 2.6 | 5.2 | 0.00 | 0.00 | 0.00 | 82 | 1015.2 |
| 20260906082305 | 79 | 145 | 2.6 | 6.1 | 0.00 | 0.00 | 0.00 | 82 | 1015.1 |
| 20260906081724 | 79 | 118 | 2.6 | 6.1 | 0.00 | 0.00 | 0.00 | 82 | 1015.1 |
| 20260906081519 | 79 | 131 | 2.6 | 6.1 | 0.00 | 0.00 | 0.00 | 82 | 1012.3 |
| 20260906081233 | 79 | 122 | 3.5 | 7.0 | 0.00 | 0.00 | 0.00 | 82 | 1015.2 |
| 20260906080742 | 79 | 138 | 3.5 | 7.0 | 0.00 | 0.00 | 0.00 | 82 | 1015.2 |
| 20260906080225 | 79 | 148 | 4.3 | 7.8 | 0.00 | 0.00 | 0.00 | 82 | 1015.2 |
| 20260906080028 | 79 | 142 | 4.3 | 7.8 | 0.00 | 0.00 | 0.00 | 82 | 1012.1 |
| 20260906075736 | 79 | 134 | 5.2 | 8.7 | 0.00 | 0.00 | 0.00 | 82 | 1015.0 |
| 20260906075248 | 79 | 145 | 5.2 | 8.7 | 0.00 | 0.00 | 0.00 | 82 | 1014.9 |
| 20260906074732 | 80 | 147 | 6.1 | 10.4 | 0.00 | 0.00 | 0.00 | 81 | 1014.9 |
| 20260906074518 | 79 | 139 | 5.2 | 10.4 | 0.00 | 0.00 | 0.00 | 81 | 1012.1 |
| 20260906074223 | 80 | 141 | 7.8 | 10.4 | 0.00 | 0.00 | 0.00 | 81 | 1014.9 |
| 20260906073730 | 80 | 140 | 6.1 | 10.4 | 0.00 | 0.00 | 0.00 | 81 | 1015.0 |
| 20260906073241 | 80 | 114 | 5.2 | 9.6 | 0.00 | 0.00 | 0.00 | 81 | 1015.0 |
| 20260906073054 | 79 | 136 | 4.3 | 9.6 | 0.00 | 0.00 | 0.00 | 81 | 1012.2 |
| 20260906072722 | 80 | 132 | 6.1 | 9.6 | 0.00 | 0.00 | 0.00 | 81 | 1015.1 |
| 20260906072233 | 80 | 130 | 6.1 | 8.7 | 0.00 | 0.00 | 0.00 | 81 | 1015.1 |
| 20260906071745 | 80 | 119 | 4.3 | 9.6 | 0.00 | 0.00 | 0.00 | 81 | 1015.1 |
| 20260906071559 | 80 | 140 | 4.3 | 9.6 | 0.00 | 0.00 | 0.00 | 81 | 1012.2 |
| 20260906071230 | 80 | 132 | 7.0 | 9.6 | 0.00 | 0.00 | 0.00 | 81 | 1015.2 |
| 20260906070739 | 80 | 148 | 6.1 | 9.6 | 0.00 | 0.00 | 0.00 | 81 | 1015.2 |
| 20260906070249 | 80 | 145 | 5.2 | 10.4 | 0.00 | 0.00 | 0.00 | 80 | 1015.2 |
| 20260906070053 | 80 | 129 | 5.2 | 12.2 | 0.00 | 0.00 | 0.00 | 80 | 1012.3 |
| 20260906065727 | 80 | 136 | 7.0 | 12.2 | 0.00 | 0.00 | 0.00 | 80 | 1015.2 |
| 20260906065238 | 80 | 126 | 7.8 | 12.2 | 0.00 | 0.00 | 0.00 | 80 | 1015.3 |
| 20260906064722 | 80 | 139 | 6.1 | 10.4 | 0.00 | 0.00 | 0.00 | 80 | 1015.3 |
| 20260906064557 | 80 | 117 | 5.2 | 10.4 | 0.00 | 0.00 | 0.00 | 80 | 1012.5 |
| 20260906064235 | 80 | 105 | 6.1 | 10.4 | 0.00 | 0.00 | 0.00 | 80 | 1015.4 |
| 20260906063745 | 80 | 136 | 6.1 | 10.4 | 0.00 | 0.00 | 0.00 | 80 | 1015.5 |
| 20260906063228 | 81 | 154 | 6.1 | 9.6 | 0.00 | 0.00 | 0.00 | 80 | 1015.5 |
| 20260906063008 | 80 | 121 | 5.2 | 9.6 | 0.00 | 0.00 | 0.00 | 80 | 1012.6 |
| 20260906062738 | 81 | 134 | 7.0 | 9.6 | 0.00 | 0.00 | 0.00 | 80 | 1015.5 |
| 20260906062249 | 81 | 119 | 5.2 | 8.7 | 0.00 | 0.00 | 0.00 | 80 | 1015.5 |
| 20260906061727 | 81 | 128 | 5.2 | 8.7 | 0.00 | 0.00 | 0.00 | 80 | 1015.5 |
| 20260906061507 | 80 | 157 | 4.3 | 8.7 | 0.00 | 0.00 | 0.00 | 80 | 1012.6 |
| 20260906061259 | 81 | 139 | 5.2 | 8.7 | 0.00 | 0.00 | 0.00 | 79 | 1015.5 |
| 20260906060749 | 81 | 119 | 5.2 | 9.6 | 0.00 | 0.00 | 0.00 | 79 | 1015.4 |
| 20260906060230 | 81 | 121 | 6.1 | 9.6 | 0.00 | 0.00 | 0.00 | 79 | 1015.5 |
| 20260906060042 | 81 | 128 | 6.1 | 11.3 | 0.00 | 0.00 | 0.00 | 79 | 1012.6 |
| 20260906055739 | 81 | 138 | 6.1 | 11.3 | 0.00 | 0.00 | 0.00 | 79 | 1015.4 |
| 20260906055222 | 81 | 107 | 5.2 | 11.3 | 0.00 | 0.00 | 0.00 | 79 | 1015.4 |
| 20260906054753 | 81 | 128 | 7.0 | 11.3 | 0.00 | 0.00 | 0.00 | 79 | 1015.5 |
| 20260906054526 | 81 | 123 | 6.1 | 11.3 | 0.00 | 0.00 | 0.00 | 79 | 1012.5 |
| 20260906054242 | 81 | 88 | 7.8 | 11.3 | 0.00 | 0.00 | 0.00 | 79 | 1015.3 |
| 20260906053724 | 81 | 123 | 7.8 | 11.3 | 0.00 | 0.00 | 0.00 | 79 | 1015.4 |
| 20260906053234 | 82 | 119 | 7.8 | 11.3 | 0.00 | 0.00 | 0.00 | 79 | 1015.4 |
| 20260906053031 | 81 | 110 | 7.0 | 11.3 | 0.00 | 0.00 | 0.00 | 79 | 1012.5 |
| 20260906052747 | 82 | 126 | 7.0 | 9.6 | 0.00 | 0.00 | 0.00 | 79 | 1015.4 |
| 20260906052231 | 82 | 103 | 7.0 | 9.6 | 0.00 | 0.00 | 0.00 | 78 | 1015.5 |
| 20260906051744 | 82 | 105 | 6.1 | 8.7 | 0.00 | 0.00 | 0.00 | 78 | 1015.5 |
| 20260906051525 | 82 | 105 | 7.0 | 8.7 | 0.00 | 0.00 | 0.00 | 78 | 1012.6 |
| 20260906051227 | 82 | 109 | 7.0 | 8.7 | 0.00 | 0.00 | 0.00 | 78 | 1015.5 |
| 20260906050739 | 82 | 121 | 6.1 | 8.7 | 0.00 | 0.00 | 0.00 | 78 | 1015.5 |
| 20260906050309 | 82 | 111 | 6.1 | 8.7 | 0.00 | 0.00 | 0.00 | 78 | 1015.5 |
| 20260906050051 | 82 | 115 | 5.2 | 8.7 | 0.00 | 0.00 | 0.00 | 78 | 1012.6 |
| 20260906045730 | 82 | 115 | 5.2 | 8.7 | 0.00 | 0.00 | 0.00 | 77 | 1015.5 |
| 20260906045242 | 83 | 108 | 6.1 | 9.6 | 0.00 | 0.00 | 0.00 | 77 | 1015.5 |
| 20260906044727 | 83 | 111 | 5.2 | 9.6 | 0.00 | 0.00 | 0.00 | 77 | 1015.5 |
| 20260906044557 | 82 | 80 | 6.1 | 9.6 | 0.00 | 0.00 | 0.00 | 77 | 1012.5 |
| 20260906044238 | 83 | 88 | 7.0 | 9.6 | 0.00 | 0.00 | 0.00 | 77 | 1015.4 |
| 20260906043809 | 83 | 96 | 7.0 | 10.4 | 0.00 | 0.00 | 0.00 | 77 | 1015.4 |
| 20260906043230 | 83 | 95 | 7.0 | 9.6 | 0.00 | 0.00 | 0.00 | 77 | 1015.4 |
| 20260906043039 | 83 | 99 | 7.0 | 9.6 | 0.00 | 0.00 | 0.00 | 76 | 1012.6 |
| 20260906042737 | 83 | 101 | 7.0 | 8.7 | 0.00 | 0.00 | 0.00 | 76 | 1015.5 |
| 20260906042221 | 83 | 97 | 5.2 | 8.7 | 0.00 | 0.00 | 0.00 | 76 | 1015.5 |
| 20260906041735 | 84 | 115 | 6.1 | 8.7 | 0.00 | 0.00 | 0.00 | 76 | 1015.5 |
| 20260906041554 | 83 | 116 | 6.1 | 8.7 | 0.00 | 0.00 | 0.00 | 76 | 1012.5 |
| 20260906041248 | 84 | 103 | 6.1 | 9.6 | 0.00 | 0.00 | 0.00 | 76 | 1015.5 |
| 20260906040759 | 84 | 113 | 6.1 | 9.6 | 0.00 | 0.00 | 0.00 | 75 | 1015.5 |
| 20260906040250 | 84 | 104 | 7.8 | 9.6 | 0.00 | 0.00 | 0.00 | 75 | 1015.5 |
| 20260906040022 | 83 | 91 | 6.1 | 10.4 | 0.00 | 0.00 | 0.00 | 75 | 1012.5 |
| 20260906035731 | 84 | 85 | 7.0 | 10.4 | 0.00 | 0.00 | 0.00 | 75 | 1015.5 |
| 20260906035240 | 84 | 95 | 7.0 | 10.4 | 0.00 | 0.00 | 0.00 | 75 | 1015.4 |
| 20260906034725 | 84 | 89 | 7.0 | 10.4 | 0.00 | 0.00 | 0.00 | 75 | 1015.5 |
| 20260906034532 | 84 | 110 | 6.1 | 9.6 | 0.00 | 0.00 | 0.00 | 75 | 1012.5 |
| 20260906034238 | 84 | 99 | 7.0 | 9.6 | 0.00 | 0.00 | 0.00 | 75 | 1015.4 |
| 20260906033752 | 84 | 101 | 7.0 | 10.4 | 0.00 | 0.00 | 0.00 | 75 | 1015.4 |
| 20260906033244 | 84 | 93 | 7.0 | 10.4 | 0.00 | 0.00 | 0.00 | 75 | 1015.3 |
| 20260906033055 | 84 | 82 | 6.1 | 10.4 | 0.00 | 0.00 | 0.00 | 75 | 1012.4 |
| 20260906032727 | 85 | 94 | 6.1 | 8.7 | 0.00 | 0.00 | 0.00 | 75 | 1015.3 |
| 20260906032240 | 85 | 98 | 6.1 | 8.7 | 0.00 | 0.00 | 0.00 | 75 | 1015.3 |
| 20260906031724 | 85 | 69 | 6.1 | 11.3 | 0.00 | 0.00 | 0.00 | 74 | 1015.2 |
| 20260906031505 | 84 | 111 | 7.0 | 11.3 | 0.00 | 0.00 | 0.00 | 74 | 1012.3 |
| 20260906031236 | 85 | 88 | 7.0 | 10.4 | 0.00 | 0.00 | 0.00 | 74 | 1015.1 |
| 20260906030745 | 85 | 90 | 6.1 | 9.6 | 0.00 | 0.00 | 0.00 | 74 | 1015.0 |
| 20260906030229 | 85 | 93 | 7.0 | 11.3 | 0.00 | 0.00 | 0.00 | 74 | 1014.8 |
| 20260906030015 | 85 | 107 | 7.0 | 11.3 | 0.00 | 0.00 | 0.00 | 74 | 1011.8 |
| 20260906025742 | 85 | 100 | 7.8 | 13.0 | 0.00 | 0.00 | 0.00 | 74 | 1014.7 |
| 20260906025227 | 85 | 117 | 6.1 | 13.0 | 0.00 | 0.00 | 0.00 | 74 | 1014.7 |
| 20260906024740 | 85 | 80 | 7.0 | 9.6 | 0.00 | 0.00 | 0.00 | 74 | 1014.7 |
| 20260906024522 | 85 | 105 | 6.1 | 10.4 | 0.00 | 0.00 | 0.00 | 74 | 1011.7 |
| 20260906024255 | 85 | 74 | 7.0 | 10.4 | 0.00 | 0.00 | 0.00 | 74 | 1014.7 |
| 20260906023741 | 86 | 90 | 7.0 | 10.4 | 0.00 | 0.00 | 0.00 | 74 | 1014.5 |
| 20260906023226 | 86 | 94 | 6.1 | 9.6 | 0.00 | 0.00 | 0.00 | 74 | 1014.6 |
| 20260906023006 | 85 | 92 | 7.0 | 9.6 | 0.00 | 0.00 | 0.00 | 74 | 1011.6 |
| 20260906022738 | 86 | 79 | 6.1 | 9.6 | 0.00 | 0.00 | 0.00 | 74 | 1014.6 |
| 20260906022222 | 86 | 78 | 5.2 | 8.7 | 0.00 | 0.00 | 0.00 | 73 | 1014.6 |
| 20260906021735 | 86 | 57 | 6.1 | 10.4 | 0.00 | 0.00 | 0.00 | 73 | 1014.4 |
| 20260906021510 | 86 | 82 | 7.0 | 10.4 | 0.00 | 0.00 | 0.00 | 73 | 1011.4 |
| 20260906021248 | 86 | 77 | 7.0 | 10.4 | 0.00 | 0.00 | 0.00 | 73 | 1014.4 |
| 20260906020728 | 86 | 71 | 6.1 | 9.6 | 0.00 | 0.00 | 0.00 | 72 | 1014.2 |
| 20260906020239 | 87 | 97 | 6.1 | 10.4 | 0.00 | 0.00 | 0.00 | 72 | 1014.0 |
| 20260906020015 | 86 | 80 | 6.1 | 10.4 | 0.00 | 0.00 | 0.00 | 72 | 1011.0 |
| 20260906015747 | 87 | 105 | 6.1 | 10.4 | 0.00 | 0.00 | 0.00 | 72 | 1013.9 |
| 20260906015238 | 87 | 88 | 5.2 | 10.4 | 0.00 | 0.00 | 0.00 | 72 | 1013.9 |
| 20260906014721 | 87 | 93 | 7.0 | 10.4 | 0.00 | 0.00 | 0.00 | 71 | 1014.0 |
| 20260906014609 | 87 | 92 | 6.1 | 10.4 | 0.00 | 0.00 | 0.00 | 71 | 1010.8 |
| 20260906014256 | 87 | 91 | 7.0 | 10.4 | 0.00 | 0.00 | 0.00 | 71 | 1013.9 |
| 20260906013747 | 87 | 76 | 6.1 | 9.6 | 0.00 | 0.00 | 0.00 | 71 | 1013.8 |
| 20260906013226 | 88 | 96 | 6.1 | 9.6 | 0.00 | 0.00 | 0.00 | 71 | 1013.8 |
| 20260906013043 | 87 | 82 | 5.2 | 9.6 | 0.00 | 0.00 | 0.00 | 71 | 1010.7 |
| 20260906012737 | 88 | 96 | 4.3 | 9.6 | 0.00 | 0.00 | 0.00 | 71 | 1013.7 |
| 20260906012245 | 88 | 82 | 5.2 | 9.6 | 0.00 | 0.00 | 0.00 | 70 | 1013.7 |
| 20260906011729 | 88 | 67 | 4.3 | 8.7 | 0.00 | 0.00 | 0.00 | 70 | 1013.7 |
| 20260906011542 | 88 | 90 | 5.2 | 8.7 | 0.00 | 0.00 | 0.00 | 70 | 1010.6 |
| 20260906011224 | 89 | 91 | 5.2 | 7.8 | 0.00 | 0.00 | 0.00 | 70 | 1013.5 |
| 20260906010735 | 89 | 64 | 4.3 | 8.7 | 0.00 | 0.00 | 0.00 | 70 | 1013.5 |
| 20260906010248 | 89 | 80 | 5.2 | 8.7 | 0.00 | 0.00 | 0.00 | 69 | 1013.4 |
| 20260906010024 | 89 | 80 | 5.2 | 7.8 | 0.00 | 0.00 | 0.00 | 69 | 1010.4 |
| 20260906005741 | 90 | 68 | 4.3 | 7.8 | 0.00 | 0.00 | 0.00 | 68 | 1013.4 |
| 20260906005256 | 90 | 78 | 5.2 | 8.7 | 0.00 | 0.00 | 0.00 | 67 | 1013.4 |
| 20260906004745 | 90 | 68 | 5.2 | 8.7 | 0.00 | 0.00 | 0.00 | 67 | 1013.4 |
| 20260906004607 | 90 | 97 | 6.1 | 9.6 | 0.00 | 0.00 | 0.00 | 67 | 1010.4 |
| 20260906004509 | 90 | 87 | 6.1 | 9.6 | 0.00 | 0.00 | 0.00 | 67 | 1010.3 |
| 20260906004226 | 90 | 90 | 6.1 | 9.6 | 0.00 | 0.00 | 0.00 | 66 | 1013.3 |
| 20260906003758 | 91 | 112 | 7.0 | 10.4 | 0.00 | 0.00 | 0.00 | 66 | 1013.3 |
| 20260906003221 | 91 | 126 | 7.0 | 10.4 | 0.00 | 0.00 | 0.00 | 65 | 1013.4 |
| 20260906003049 | 91 | 121 | 7.0 | 9.6 | 0.00 | 0.00 | 0.00 | 65 | 1010.3 |
| 20260906002755 | 91 | 91 | 6.1 | 9.6 | 0.00 | 0.00 | 0.00 | 65 | 1013.3 |
| 20260906002228 | 92 | 126 | 5.2 | 10.4 | 0.00 | 0.00 | 0.00 | 64 | 1013.2 |
| 20260906001742 | 92 | 116 | 5.2 | 10.4 | 0.00 | 0.00 | 0.00 | 64 | 1013.2 |
| 20260906001520 | 92 | 118 | 7.0 | 10.4 | 0.00 | 0.00 | 0.00 | 64 | 1010.2 |
| 20260906001227 | 92 | 132 | 7.0 | 9.6 | 0.00 | 0.00 | 0.00 | 64 | 1013.3 |
| 20260906000736 | 93 | 107 | 7.0 | 9.6 | 0.00 | 0.00 | 0.00 | 63 | 1013.3 |
| 20260906000248 | 93 | 113 | 7.0 | 8.7 | 0.00 | 0.00 | 0.00 | 63 | 1013.2 |
| 20260906000007 | 92 | 109 | 6.1 | 8.7 | 0.00 | 0.00 | 0.00 | 63 | 1010.3 |
| 20260905235738 | 93 | 119 | 6.1 | 8.7 | 0.00 | 0.00 | 0.00 | 63 | 1013.3 |
| 20260905235224 | 93 | 133 | 4.3 | 10.4 | 0.00 | 0.00 | 0.00 | 62 | 1013.3 |
| 20260905234737 | 93 | 117 | 5.2 | 10.4 | 0.00 | 0.00 | 0.00 | 62 | 1013.3 |
| 20260905234508 | 93 | 130 | 7.0 | 10.4 | 0.00 | 0.00 | 0.00 | 61 | 1010.3 |
| 20260905234310 | 93 | 111 | 5.2 | 10.4 | 0.00 | 0.00 | 0.00 | 62 | 1013.3 |
| 20260905233733 | 94 | 105 | 6.1 | 10.4 | 0.00 | 0.00 | 0.00 | 62 | 1013.3 |
| 20260905233242 | 94 | 149 | 7.0 | 13.0 | 0.00 | 0.00 | 0.00 | 61 | 1013.2 |
| 20260905233049 | 93 | 99 | 6.1 | 13.0 | 0.00 | 0.00 | 0.00 | 60 | 1010.2 |
| 20260905232727 | 94 | 135 | 8.7 | 13.0 | 0.00 | 0.00 | 0.00 | 60 | 1013.1 |
| 20260905232240 | 94 | 104 | 7.0 | 13.0 | 0.00 | 0.00 | 0.00 | 61 | 1013.2 |
| 20260905231723 | 94 | 134 | 7.8 | 12.2 | 0.00 | 0.00 | 0.00 | 61 | 1013.2 |
| 20260905231556 | 94 | 96 | 7.8 | 12.2 | 0.00 | 0.00 | 0.00 | 60 | 1010.1 |
| 20260905231238 | 94 | 136 | 6.1 | 13.0 | 0.00 | 0.00 | 0.00 | 61 | 1013.2 |
| 20260905230722 | 94 | 132 | 7.8 | 13.0 | 0.00 | 0.00 | 0.00 | 59 | 1013.1 |
| 20260905230237 | 95 | 82 | 8.7 | 13.0 | 0.00 | 0.00 | 0.00 | 59 | 1013.1 |
| 20260905230014 | 94 | 97 | 8.7 | 12.2 | 0.00 | 0.00 | 0.00 | 59 | 1010.1 |
| 20260905225747 | 95 | 130 | 8.7 | 13.9 | 0.00 | 0.00 | 0.00 | 59 | 1013.0 |
| 20260905225230 | 95 | 138 | 8.7 | 13.9 | 0.00 | 0.00 | 0.00 | 59 | 1013.0 |
| 20260905224739 | 95 | 130 | 8.7 | 12.2 | 0.00 | 0.00 | 0.00 | 58 | 1013.0 |
| 20260905224523 | 94 | 147 | 7.8 | 12.2 | 0.00 | 0.00 | 0.00 | 59 | 1009.9 |
| 20260905224224 | 95 | 111 | 8.7 | 13.9 | 0.00 | 0.00 | 0.00 | 58 | 1012.9 |
| 20260905223735 | 95 | 137 | 8.7 | 13.9 | 0.00 | 0.00 | 0.00 | 58 | 1012.9 |
| 20260905223246 | 95 | 155 | 7.8 | 13.0 | 0.00 | 0.00 | 0.00 | 58 | 1012.9 |
| 20260905223058 | 94 | 138 | 7.8 | 13.0 | 0.00 | 0.00 | 0.00 | 59 | 1009.8 |
| 20260905222738 | 95 | 123 | 7.8 | 13.9 | 0.00 | 0.00 | 0.00 | 59 | 1012.8 |
| 20260905222247 | 95 | 114 | 10.4 | 15.6 | 0.00 | 0.00 | 0.00 | 58 | 1012.8 |
| 20260905221754 | 95 | 134 | 12.2 | 15.6 | 0.00 | 0.00 | 0.00 | 58 | 1012.7 |
| 20260905221516 | 94 | 139 | 8.7 | 14.8 | 0.00 | 0.00 | 0.00 | 59 | 1009.7 |
| 20260905221247 | 95 | 88 | 7.8 | 16.5 | 0.00 | 0.00 | 0.00 | 58 | 1012.8 |
| 20260905220731 | 95 | 134 | 8.7 | 16.5 | 0.00 | 0.00 | 0.00 | 57 | 1012.8 |
| 20260905220244 | 95 | 111 | 8.7 | 13.9 | 0.00 | 0.00 | 0.00 | 58 | 1012.8 |
| 20260905220050 | 95 | 137 | 8.7 | 13.9 | 0.00 | 0.00 | 0.00 | 58 | 1009.9 |
| 20260905215757 | 95 | 109 | 10.4 | 13.9 | 0.00 | 0.00 | 0.00 | 57 | 1012.9 |
| 20260905215221 | 95 | 113 | 9.6 | 13.9 | 0.00 | 0.00 | 0.00 | 57 | 1012.9 |
| 20260905214731 | 95 | 143 | 8.7 | 13.0 | 0.00 | 0.00 | 0.00 | 58 | 1012.9 |
| 20260905214531 | 94 | 127 | 8.7 | 13.0 | 0.00 | 0.00 | 0.00 | 57 | 1009.9 |
| 20260905214300 | 95 | 143 | 8.7 | 13.0 | 0.00 | 0.00 | 0.00 | 58 | 1013.0 |
| 20260905213810 | 94 | 133 | 7.8 | 13.0 | 0.00 | 0.00 | 0.00 | 57 | 1013.0 |
| 20260905213233 | 94 | 117 | 8.7 | 13.9 | 0.00 | 0.00 | 0.00 | 57 | 1013.2 |
| 20260905213050 | 94 | 92 | 8.7 | 13.9 | 0.00 | 0.00 | 0.00 | 57 | 1010.3 |
| 20260905212806 | 94 | 105 | 10.4 | 14.8 | 0.00 | 0.00 | 0.00 | 56 | 1013.3 |
| 20260905212227 | 94 | 92 | 7.0 | 14.8 | 0.00 | 0.00 | 0.00 | 57 | 1013.4 |
| 20260905211759 | 94 | 77 | 8.7 | 13.9 | 0.00 | 0.00 | 0.00 | 56 | 1013.5 |
| 20260905211503 | 93 | 119 | 7.0 | 13.9 | 0.00 | 0.00 | 0.00 | 57 | 1010.6 |
| 20260905211247 | 94 | 136 | 8.7 | 13.9 | 0.00 | 0.00 | 0.00 | 57 | 1013.6 |
| 20260905210729 | 94 | 127 | 9.6 | 13.0 | 0.00 | 0.00 | 0.00 | 57 | 1013.6 |
| 20260905210301 | 94 | 78 | 7.8 | 13.9 | 0.00 | 0.00 | 0.00 | 56 | 1013.7 |
| 20260905210043 | 93 | 69 | 7.0 | 13.9 | 0.00 | 0.00 | 0.00 | 56 | 1010.7 |
| 20260905205751 | 94 | 123 | 8.7 | 13.9 | 0.00 | 0.00 | 0.00 | 56 | 1013.9 |
| 20260905205242 | 94 | 104 | 9.6 | 13.9 | 0.00 | 0.00 | 0.00 | 56 | 1014.0 |
| 20260905204733 | 94 | 140 | 7.8 | 14.8 | 0.00 | 0.00 | 0.00 | 56 | 1014.0 |
| 20260905204507 | 93 | 87 | 9.6 | 15.6 | 0.00 | 0.00 | 0.00 | 55 | 1011.0 |
| 20260905204242 | 94 | 101 | 9.6 | 15.6 | 0.00 | 0.00 | 0.00 | 55 | 1014.2 |
| 20260905203724 | 94 | 63 | 10.4 | 15.6 | 0.00 | 0.00 | 0.00 | 56 | 1014.2 |
| 20260905203235 | 94 | 87 | 10.4 | 15.6 | 0.00 | 0.00 | 0.00 | 53 | 1014.4 |
| 20260905203010 | 93 | 101 | 8.7 | 15.6 | 0.00 | 0.00 | 0.00 | 54 | 1011.4 |
| 20260905202746 | 93 | 99 | 9.6 | 14.8 | 0.00 | 0.00 | 0.00 | 55 | 1014.4 |
| 20260905202230 | 93 | 89 | 10.4 | 16.5 | 0.00 | 0.00 | 0.00 | 55 | 1014.7 |
| 20260905201742 | 94 | 92 | 12.2 | 16.5 | 0.00 | 0.00 | 0.00 | 53 | 1014.9 |
| 20260905201554 | 93 | 90 | 11.3 | 16.5 | 0.00 | 0.00 | 0.00 | 54 | 1011.8 |
| 20260905201233 | 94 | 81 | 10.4 | 14.8 | 0.00 | 0.00 | 0.00 | 56 | 1015.0 |
| 20260905200743 | 94 | 53 | 7.0 | 15.6 | 0.00 | 0.00 | 0.00 | 55 | 1015.2 |
| 20260905200222 | 94 | 50 | 10.4 | 14.8 | 0.00 | 0.00 | 0.00 | 57 | 1015.2 |
| 20260905200105 | 94 | 50 | 9.6 | 14.8 | 0.00 | 0.00 | 0.00 | 57 | 1012.1 |
| 20260905195734 | 94 | 59 | 10.4 | 15.6 | 0.00 | 0.00 | 0.00 | 58 | 1015.2 |
| 20260905195247 | 94 | 81 | 7.8 | 15.6 | 0.00 | 0.00 | 0.00 | 58 | 1015.2 |
| 20260905194732 | 93 | 55 | 8.7 | 17.4 | 0.00 | 0.00 | 0.00 | 58 | 1015.2 |
| 20260905194507 | 93 | 87 | 10.4 | 17.4 | 0.00 | 0.00 | 0.00 | 58 | 1012.1 |
| 20260905194245 | 93 | 108 | 12.2 | 17.4 | 0.00 | 0.00 | 0.00 | 58 | 1015.1 |
| 20260905193735 | 93 | 98 | 8.7 | 14.8 | 0.00 | 0.00 | 0.00 | 61 | 1015.3 |
| 20260905193307 | 93 | 112 | 9.6 | 15.6 | 0.00 | 0.00 | 0.00 | 61 | 1015.4 |
| 20260905193029 | 92 | 76 | 7.8 | 15.6 | 0.00 | 0.00 | 0.00 | 61 | 1012.2 |
| 20260905192726 | 93 | 82 | 11.3 | 17.4 | 0.00 | 0.00 | 0.00 | 60 | 1015.4 |
| 20260905192257 | 93 | 88 | 10.4 | 18.2 | 0.00 | 0.00 | 0.00 | 61 | 1015.5 |
| 20260905191720 | 92 | 39 | 11.3 | 18.2 | 0.00 | 0.00 | 0.00 | 61 | 1015.5 |
| 20260905191520 | 92 | 92 | 10.4 | 18.2 | 0.00 | 0.00 | 0.00 | 62 | 1012.5 |
| 20260905191234 | 92 | 48 | 11.3 | 18.2 | 0.00 | 0.00 | 0.00 | 61 | 1015.7 |
| 20260905190744 | 92 | 108 | 13.0 | 18.2 | 0.00 | 0.00 | 0.00 | 61 | 1015.8 |
| 20260905190228 | 92 | 105 | 11.3 | 17.4 | 0.00 | 0.00 | 0.00 | 61 | 1015.9 |
| 20260905190034 | 92 | 51 | 10.4 | 18.2 | 0.00 | 0.00 | 0.00 | 61 | 1012.9 |
| 20260905185739 | 92 | 89 | 11.3 | 19.1 | 0.00 | 0.00 | 0.00 | 62 | 1016.1 |
| 20260905185223 | 92 | 39 | 12.2 | 19.1 | 0.00 | 0.00 | 0.00 | 60 | 1016.2 |
| 20260905184730 | 92 | 95 | 12.2 | 19.1 | 0.00 | 0.00 | 0.00 | 61 | 1016.4 |
| 20260905184528 | 91 | 56 | 10.4 | 17.4 | 0.00 | 0.00 | 0.00 | 62 | 1013.2 |
| 20260905184241 | 91 | 70 | 11.3 | 17.4 | 0.00 | 0.00 | 0.00 | 62 | 1016.4 |
| 20260905183723 | 91 | 75 | 13.0 | 19.1 | 0.00 | 0.00 | 0.00 | 63 | 1016.6 |
| 20260905183235 | 91 | 33 | 11.3 | 20.0 | 0.00 | 0.00 | 0.00 | 63 | 1016.7 |
| 20260905183034 | 91 | 17 | 11.3 | 20.0 | 0.00 | 0.00 | 0.00 | 63 | 1013.6 |
| 20260905182748 | 91 | 5 | 11.3 | 20.0 | 0.00 | 0.00 | 0.00 | 62 | 1016.8 |
| 20260905182230 | 91 | 27 | 13.9 | 21.7 | 0.00 | 0.00 | 0.00 | 62 | 1016.6 |
| 20260905181742 | 92 | 40 | 13.0 | 21.7 | 0.00 | 0.00 | 0.00 | 62 | 1016.7 |
| 20260905181536 | 91 | 22 | 11.3 | 21.7 | 0.00 | 0.00 | 0.00 | 61 | 1013.6 |